Flag for Italy Weather past 2 weeks in Verona, Italy

72 °F

Broken clouds.

Feels Like: 75 °F
Forecast: 56 / 72 °F
Wind: 5 mph from Southeast

Location: Verona / Villafranca

Current Time: Oct 7, 2015 at 6:45:16 PM

Latest Report: Oct 7, 2015 at 5:50 PM

Visibility: N/A

Pressure: 29.83 "Hg

Humidity: 69%

Dew point: 61 °F

Location of VeronaLocation

Historic Weather in Verona — Graph


Verona temperature yesterday

Maximum temperature yesterday: 66 °F (at 2:20 PM)
Minimum temperature yesterday: 61 °F (at 2:50 AM)
Average temperature yesterday: 63 °F

Past Weeks' High & Low Weather Summary

High77 °F (Sep 25, 3:20 PM)100% (Oct 3, 8:20 AM)31.01 "Hg (Oct 3, 8:20 AM)
Low48 °F (Oct 1, 5:50 AM)28% (Sep 29, 4:50 PM)29.62 "Hg (Sep 23, 4:50 AM)
Average62 °F69%30.08 "Hg
* Reported Sep 22 5:20 PM — Oct 7 5:20 PM, Verona, Weather by CustomWeather, © 2015

Note: Actual official high and low records may vary slightly from our data, if they occured in-between our weather recording intervals... More about our weather records


Verona weather history for previous 24 hours

Time TempWeatherWind HumidityBarometerVisibility
5:20 PM
Wed, Oct 7
70 °FPartly sunny.2 mph73%29.83 "HgN/A
4:50 PM72 °FScattered clouds.2 mph65%29.83 "HgN/A
4:20 PM73 °FScattered clouds.3 mph61%29.80 "Hg5 mi
3:50 PM72 °FScattered clouds.3 mph65%29.80 "Hg5 mi
3:20 PM73 °FScattered clouds.3 mph61%29.80 "Hg5 mi
2:50 PM73 °FScattered clouds.2 mph65%29.80 "Hg5 mi
2:20 PM72 °FScattered clouds.5 mph65%29.80 "Hg5 mi
1:50 PM72 °FScattered clouds.2 mph69%29.80 "Hg4 mi
1:20 PM70 °FScattered clouds.2 mph69%29.80 "Hg4 mi
12:50 PM68 °FScattered clouds.2 mph73%29.80 "Hg4 mi
12:20 PM68 °FScattered clouds.2 mph78%29.80 "Hg4 mi
11:50 AM66 °FFog.3 mph78%29.80 "Hg3 mi
11:20 AM64 °FFog.3 mph88%29.80 "Hg3 mi
10:50 AM64 °FFog.3 mph83%29.80 "Hg3 mi
10:20 AM63 °FFog.5 mph94%29.80 "Hg2 mi
9:50 AM63 °FFog.3 mph94%29.80 "Hg2 mi
9:20 AM61 °FFog.2 mph94%29.80 "Hg1 mi
8:50 AM61 °FFog.2 mph94%29.80 "Hg1 mi
8:20 AM59 °FFog.3 mph100%29.77 "Hg1 mi
7:50 AM59 °FFog.1 mph100%29.77 "Hg1 mi
7:20 AM59 °FFog.2 mph100%29.77 "Hg1 mi
6:50 AM59 °FFog.3 mph100%29.77 "Hg1 mi
6:20 AM59 °FFog.6 mph100%29.77 "Hg2 mi
5:50 AM59 °FFog.3 mph100%29.77 "Hg2 mi
5:20 AM59 °FFog.5 mph100%29.77 "Hg2 mi
4:50 AM59 °FFog.7 mph100%29.77 "Hg2 mi
4:20 AM59 °FFog.7 mph100%29.77 "Hg2 mi
3:50 AM59 °FFog.3 mph100%29.77 "Hg2 mi
3:20 AM61 °FFog.3 mph94%29.77 "Hg2 mi
2:50 AM61 °FFog.3 mph100%29.80 "Hg2 mi
2:20 AM61 °FFog.1 mph100%29.80 "Hg2 mi
1:50 AM61 °FFog.2 mph100%29.80 "Hg2 mi
1:20 AM61 °FFog.2 mph100%29.80 "Hg2 mi
12:50 AM61 °FFog.3 mph100%29.83 "Hg2 mi
12:20 AM61 °FFog.5 mph100%29.83 "Hg1 mi
11:50 PM
Tue, Oct 6
61 °FFog.5 mph100%29.83 "Hg1 mi
11:20 PM61 °FFog.2 mph100%29.83 "Hg1 mi
10:50 PM61 °FFog.2 mph100%29.83 "Hg1 mi
10:20 PM61 °FFog.3 mph100%29.83 "Hg1 mi
9:50 PM63 °FFog.3 mph94%29.83 "Hg2 mi
9:20 PM63 °FFog.2 mph94%29.83 "Hg2 mi
8:50 PM61 °FFog.2 mph100%29.83 "Hg2 mi
8:20 PM63 °FFog.2 mph94%29.83 "Hg2 mi
7:50 PM61 °FFog.3 mph94%29.83 "Hg2 mi
7:20 PM63 °FFog.2 mph94%29.83 "Hg1 mi
6:50 PM63 °FDrizzle. Fog.3 mph94%29.83 "Hg1 mi
6:20 PM63 °FDrizzle. Fog.3 mph94%29.83 "Hg2 mi
Weather by CustomWeather, © 2015

See weather overviewHow to use our weather pages